Location: Observatoire
(46.1952°N, 5.3391°E)
Time: 15:11:32
(UTC+01:00)

Transit 2A Rocket - Visible Passes

Search period start: 10 February 2026 00:00
Search period end: 20 February 2026 00:00
Orbit: 581 x 902 km, 66.7° (Epoch: 9 February)

Date Brightness Start Highest point End Pass type
(mag) Time Alt. Az. Time Alt. Az. Time Alt. Az.
10 Feb 5.7 19:02:17 10° SW 19:08:17 67° NW 19:14:17 10° NNE visible
10 Feb 7.5 20:47:31 10° WNW 20:51:48 20° NNW 20:55:33 12° N visible
11 Feb 5.4 18:16:37 10° SSW 18:22:36 78° ESE 18:28:39 10° NE visible
11 Feb 7.1 20:00:37 10° W 20:05:40 27° NW 20:10:41 10° NNE visible
11 Feb 7.9 21:48:35 10° NNW 21:50:13 11° NNW 21:51:09 11° N visible
12 Feb 6.6 19:14:04 10° WSW 19:19:40 39° NW 19:25:15 10° NNE visible
12 Feb 7.7 21:00:50 10° NW 21:03:48 14° NNW 21:06:43 10° N visible
13 Feb 6.0 18:27:53 10° SW 18:33:48 59° NW 18:39:45 10° NNE visible
13 Feb 7.6 20:13:28 10° WNW 20:17:29 18° NNW 20:21:26 10° NNE visible
14 Feb 7.2 19:26:27 10° W 19:31:18 24° NW 19:36:06 10° NNE visible
14 Feb 7.8 21:14:54 10° NNW 21:15:57 10° NNW 21:16:59 10° N visible
15 Feb 6.8 18:39:47 10° WSW 18:45:16 35° NW 18:50:41 10° NNE visible
15 Feb 7.7 20:26:56 10° NW 20:29:30 13° NNW 20:32:03 10° N visible
16 Feb 7.6 19:39:27 10° WNW 19:43:09 16° NNW 19:46:49 10° N visible
17 Feb 7.3 18:52:19 10° W 18:56:56 22° NW 19:01:29 10° NNE visible
18 Feb 7.7 19:53:04 10° NW 19:55:12 12° NNW 19:57:20 10° N visible
19 Feb 7.5 19:05:27 10° WNW 19:08:49 15° NNW 19:12:09 10° N visible
